Find Starlink 36792

NORAD ID: 67804 Int'l Des: 2026-032 Owner: SPXS Country: US Constellation: starlink operational
LEOCIRCULARRETROGRADE

現在のビュー

3D地球を読み込み中...

Starlink 36792について

説明を読み込み中...

次回通過

Passes for default location (London). Set your location on the main map for personalized predictions.

高度履歴

Loading altitude history...

軌道要素

1 67804U 26032H 26146.05655129 .00022120 00000-0 68552-3 0 9996
2 67804 97.2854 334.0800 0002622 96.1334 264.0208 15.33441444 16819
Epoch: May 26, 2026 • Age: 13 hours

現在のステータス

高度 473.0 km
速度 7.64 km/s
衛星直下点 53.58°N, 131.29°W
打ち上げ日 Feb 15, 2026
運用期間 0.2 years
タイプ internet

技術仕様

分類 Payload
質量 575.00 kg
乾燥質量 530.00 kg
総質量 575.00 kg
長さ 0.30 m
直径 4.10 m
スパン 29.00 m
形状 Box + pan
製造者 SPXS
バスタイプ Starlink V2MO
フェーズステータス In Orbit
所有者/国 SPXS/US

Most Searched